This is the latest recevied weather packets stored in our database for station/object AJ5AG. If no packets are shown the sender has not sent any weather packets the latest 10 day(s).
| Time | Temp. | Humidity | Pressure | Rain* | Wind** | Luminosity | Snow |
|---|---|---|---|---|---|---|---|
| 1777665248 | 15° C | 97% | 1014.8 hPa | 0 mm | - | 32 W/m² | - |
| 1777664944 | 15° C | 97% | 1014.5 hPa | 0 mm | - | 25 W/m² | - |
| 1777664640 | 15° C | 97% | 1014.8 hPa | 0 mm | - | 23 W/m² | - |
| 1777664336 | 15° C | 97% | 1014.2 hPa | 0 mm | - | 28 W/m² | - |
| 1777664035 | 15° C | 96% | 1013.9 hPa | 0 mm | - | 29 W/m² | - |
| 1777663732 | 15.56° C | 97% | 1014 hPa | 0 mm | - | 37 W/m² | - |
| 1777663429 | 15.56° C | 97% | 1014.4 hPa | 0 mm | - | 35 W/m² | - |
| 1777663126 | 15.56° C | 97% | 1014.1 hPa | 0 mm | - | 41 W/m² | - |
| 1777662823 | 15.56° C | 97% | 1013.9 hPa | 0 mm | - | 46 W/m² | - |
| 1777662520 | 15.56° C | 97% | 1014 hPa | 0 mm | - | 41 W/m² | - |
| 1777662216 | 15.56° C | 97% | 1013.5 hPa | 0 mm | - | 44 W/m² | - |
| 1777661911 | 15.56° C | 97% | 1013.1 hPa | 0 mm | - | 52 W/m² | - |
| 1777661608 | 15.56° C | 97% | 1012.9 hPa | 0 mm | - | 82 W/m² | - |
| 1777661303 | 15.56° C | 97% | 1012.3 hPa | 0 mm | - | 103 W/m² | - |
| 1777660999 | 15.56° C | 97% | 1011.7 hPa | 0 mm | - | 126 W/m² | - |
| 1777660695 | 15.56° C | 98% | 1011.5 hPa | 0 mm | - | 166 W/m² | - |
| 1777660392 | 15.56° C | 98% | 1011.2 hPa | 0 mm | - | 145 W/m² | - |
| 1777660088 | 15.56° C | 98% | 1011.1 hPa | 0 mm | - | 120 W/m² | - |
| 1777659785 | 15.56° C | 98% | 1010.8 hPa | 0 mm | - | 173 W/m² | - |
| 1777659482 | 15.56° C | 98% | 1011.6 hPa | 1.27 mm | - | 192 W/m² | - |
| 1777659180 | 15° C | 98% | 1011.8 hPa | 1.27 mm | - | 256 W/m² | - |
| 1777658877 | 15.56° C | 98% | 1012 hPa | 0 mm | - | 115 W/m² | - |
| 1777658573 | 15.56° C | 98% | 1012.3 hPa | 0 mm | - | 300 W/m² | - |
| 1777658270 | 15.56° C | 98% | 1013.1 hPa | 0 mm | - | 163 W/m² | - |
| 1777657967 | 15.56° C | 98% | 1013.3 hPa | 0 mm | - | 102 W/m² | - |
* Rain latest hour (hover to see other rain measurements)
** Current wind speed in m/s (hover to see current wind gust speed)